Location: Unspecified
(42.6207°N, 0.0000°E)
Time: 04:31:12
(UTC+00:00)

CBERS 2 - Visible Passes

Search period start: 04 April 2026 00:00
Search period end: 14 April 2026 00:00
Orbit: 768 x 771 km, 98.7° (Epoch: 28 March)

Date Brightness Start Highest point End Pass type
(mag) Time Alt. Az. Time Alt. Az. Time Alt. Az.
4 Apr 8.2 02:46:32 10° NE 02:50:16 20° E 02:53:58 10° SE visible
4 Apr 6.2 04:24:38 10° N 04:29:34 50° WNW 04:34:24 10° SW visible
5 Apr 6.1 03:48:58 10° NNE 03:54:06 77° ESE 03:58:33 14° S visible
6 Apr 7.4 03:13:44 10° NNE 03:18:26 36° E 03:22:43 12° SSE visible
6 Apr 7.0 04:52:59 10° N 04:57:20 29° WNW 05:01:40 10° SW visible
7 Apr 8.5 02:39:18 10° NE 02:42:35 17° E 02:45:50 10° SE visible
7 Apr 6.1 04:16:58 10° N 04:22:00 60° WNW 04:27:00 10° SSW visible
8 Apr 6.3 03:41:23 10° NNE 03:46:29 65° ESE 03:51:19 11° S visible
9 Apr 7.7 03:06:17 10° NE 03:10:47 30° E 03:15:14 10° SSE visible
9 Apr 6.8 04:45:14 10° N 04:49:48 34° WNW 04:54:20 10° SW visible
10 Apr 8.6 02:32:12 10° ENE 02:34:53 14° E 02:37:32 10° ESE visible
10 Apr 6.0 04:09:20 10° N 04:14:25 71° WNW 04:19:29 10° SSW visible
11 Apr 6.6 03:33:50 10° NNE 03:38:51 55° E 03:43:50 10° S visible
12 Apr 7.9 02:58:52 10° NE 03:03:06 26° E 03:07:19 10° SSE visible
12 Apr 6.6 04:37:30 10° N 04:42:14 39° WNW 04:46:57 10° SW visible
13 Apr 8.7 02:25:23 10° ENE 02:27:10 12° E 02:28:56 10° ESE visible
13 Apr 6.0 04:01:41 10° NNE 04:06:49 83° WNW 04:11:55 10° SSW visible
